Location: Ar Ranvel
(48.3000°N, 4.8833°W)
Time: 09:52:10
(UTC+00:00)

Terra - Pass Details

Date: 16 June 2021
Orbit: 701 x 703 km, 98.2° (Epoch: 01 August)

Event Time Altitude Azimuth Distance (km) Brightness Sun altitude
Exits shadow 22:44:44 16° 198° (SSW) 1,773 3.5 -15.2°
Maximum altitude 22:48:09 41° 262° (W) 1,017 2.7 -15.4°
Drops below altitude 10° 22:52:40 10° 333° (NNW) 2,183 5.7 -15.7°
Sets 22:55:04 0° 341° (NNW) 3,106 7.0 -15.8°
